Regional Weather Roundup
Issued by NWS

Home | Current Version | Previous Version | Text Only | Print | Product List | Glossary Off
Versions: 1 2 3 4 5 6 7 8 9 10 11 12 13 14 15 16 17 18 19 20 21 22 23 24 25 26 27 28 29 30 31 32 33 34 35 36 37 38 39 40 41 42 43 44 45 46 47 48 49

000
ASUS45 KCYS 290710
RWRWY

WYOMING REGIONAL WEATHER ROUNDUP
NATIONAL WEATHER SERVICE CHEYENNE WY
1200 AM MST THU JAN 29 2015

NOTE:  "FAIR" INDICATES FEW OR NO CLOUDS BELOW 12,000 FEET
WITH NO SIGNIFICANT WEATHER AND/OR OBSTRUCTIONS TO VISIBILITY.

WYZ001-290800-
YELLOWSTONE NATIONAL PARK

CITY           SKY/WX    TMP DP  RH WIND       PRES   REMARKS
LK YELLOWSTONE   N/A     22  20  92 CALM      30.41S
W YELLOWSTONE  NOT AVBL

$$
WYZ002>013-054>058-071-098>099-290800-
NORTHERN WYOMING

CITY           SKY/WX    TMP DP  RH WIND       PRES   REMARKS
JACKSON        FAIR      25  25 100 CALM      30.40R
CODY           CLOUDY    36  28  75 CALM      30.40R
GREYBULL       FOG       32  31  96 CALM      30.40R VSB 1/2
WORLAND        CLOUDY    34  29  82 NW5       30.39R WCI  30
SHERIDAN       MOCLDY    28  24  85 SW6       30.42R WCI  22
BUFFALO        FAIR      30  28  92 NW7       30.39R WCI  23
GILLETTE       FAIR      27  21  78 CALM      30.38R
HULETT           N/A    N/A N/A N/A MISG        N/A
NEWCASTLE      FAIR      28  25  86 NW12G18   30.36S WCI  18

$$
WYZ014>020-022>026-101>103-290800-
CENTRAL WYOMING

CITY           SKY/WX    TMP DP  RH WIND       PRES   REMARKS
BIG PINEY      FAIR      23  19  85 NW3       30.37R
PINEDALE       PTSUNNY   19  19 100 W9        30.37R WCI   9
DUBOIS         FAIR      27  21  80 SW5       30.37R WCI  21
LANDER         CLOUDY    36  30  79 CALM      30.37R
RIVERTON       CLOUDY    34  29  82 W8        30.38R WCI  27
CASPER         CLOUDY    34  30  85 NE3       30.39R
DOUGLAS        CLOUDY    35  26  69 N10       30.39R WCI  27

$$
WYZ021-027>030-104>119-290800-
SOUTHERN WYOMING

CITY           SKY/WX    TMP DP  RH WIND       PRES   REMARKS
EVANSTON       MOCLDY    31  29  92 N9        30.37R FOG     WCI  23
KEMMERER       FAIR      30  28  93 W8        30.37R WCI  23
FORT BRIDGER   FAIR      32  32  99 W10       30.40R WCI  23
ROCK SPRINGS   MOCLDY    32  28  85 W7        30.36R WCI  26
DIXON          CLOUDY    34  32  92 CALM      30.37R
RAWLINS        CLOUDY    33  28  81 NE12      30.35R WCI  24
SARATOGA       CLOUDY    32  32 100 W3        30.34S
LARAMIE        FLURRIES  28  27  96 W5        30.34R WCI  23
CHEYENNE       CLOUDY    36  25  64 N12       30.33R WCI  28
TORRINGTON     CLOUDY    39  25  57 N10G21    30.33R WCI  32
PINE BLUFFS    CLOUDY    36  28  75 NW7       30.33R WCI  30

$$



USA.gov is the U.S. government's official web portal to all federal, state and local government web resources and services.